Tracking 19176 objects as of 26-May-2018
HD Live streaming from Space Station
objects crossing your sky now

FENGYUN 1C DEB

Track FENGYUN 1C DEB now!
10-day predictions


NORAD ID: 30562
Int'l Code: 1999-025ALC
Perigee: 814.5 km
Apogee: 918.1 km
Inclination: 99.0 °
Period: 102.1 minutes
Semi major axis: 7237 km
RCS: 0.043 m2 (small)
Launch date: May 10, 1999
Source: People's Republic of China (PRC)
Launch site: Taiyaun Space Center, China (TSC)

Note: This is SATELLITE DEBRIS
aabbcc
Your satellite tracking list
Your tracking list is empty




NASA's NSSDC Master Catalog

Two Line Element Set (TLE):
1 30562U 99025ALC 18145.73682748  .00000582  00000-0  34612-3 0  9999
2 30562  98.9626 200.8714 0071591 172.4421 313.8117 14.10065675580567
Source of the keplerian elements: AFSPC